Powrót do katalogu

SL-3 R/B

AktywnyPO
NORAD 7210·ROCKET BODY·🇷🇺 Russia

Wystrzelony Mar 5, 1974 z Plesetsk Cosmodrome

Loading…

Następne Przeloty (najbliższe 24 godziny)

TLE

ŚwieżeSource: Space-Track

Epoka: Sep 14, 2026, 11:42 UTC

1 07210U 74011B   26257.48793374  .00000153  00000-0  71711-4 0  9990
2 07210  81.2395 340.6537 0081351 133.3748 227.4240 14.13654316706609

Śledź SL-3 R/B w czasie rzeczywistym z AllMySat

Download on the App Store